Погода в Академическом

Россия / Тверская область     57°42′45″N   34°19′01″E
темп.,
°C
ветер,
м/с
пор.,
м/с
влажн.,
%
обл.,
%
осадки,
мм/ч
давл.,
гПа
погр.,
м
19 апреля, пн
пн1900:00+7всв4117279 0.0 1026486
03:00+5всв3979100 0.0 1027402
06:00+3св388984 0.0 1027359
09:00+7всв467477 0.0 1027660
12:00+8в4664100 0.0 10261107
15:00+9в4655100 0.0 10261455
18:00+9в464779 0.0 10251683
21:00+5всв3106280 0.0 1026329
20 апреля, вт
вт2000:00+4всв396767 0.0 1026440
03:00+2всв4107776 0.0 1025381
06:000всв3107594 0.0 1024401
09:00+4в58578 0.0 1024791
12:00+7в575591 0.0 10221236
15:00+8вюв5859100 0.0 10201401
18:00+4в4989100 0.1 1019880
21:00+3в41096100 0.3 1018675
21 апреля, ср
ср2100:00+3всв31097100 0.4 1014730
03:00+3всв41097100 1.8 1011751
06:00+1св41097100 2.4 1007484
09:00+1св3899100 6.1 1005343
12:00+2всв2498100 1.1 1002277
15:00+2з1199100 2.1 1002139
18:00+2зюз2699100 0.4 1002291
21:00+1юз3897100 0.6 1004559
22 апреля, чт
чт2200:00+2ююз3998100 0.1 1004785
03:00+3юз41098100 1.1 1005955
06:00+3юз3998100 1.6 1006786
09:00+3юз3996100 2.6 1008696
12:00+8зюз3677100 0.1 10101033
15:00+11зюз3762100 0.1 10111521
18:00+11ююз127154 0.1 1012220
21:00+6ююв22895 0.1 101321
23 апреля, пт
пт2300:00+5ююв259311 0.0 101397
03:00+4юв389648 0.0 1012174
06:00+4ююв399790 0.0 1011222
09:00+10ююв5137769 0.0 1010663
12:00+14ю61268100 0.2 10091568
15:00+14ююз5127198 1.3 10081781
18:00+5зсз5791100 1.6 1009537
21:00+3з3596100 7.8 1010407